Volver al catálogo

ONEWEB-0344

ActivoComunicacionesPO
NORAD 49210·PAYLOAD·🇬🇧 United Kingdom

Lanzado Sep 14, 2021 desde Baikonur Cosmodrome

Loading…

Próximos Pases (próximas 24 horas)

TLE

ActualizadoSource: CelesTrak SupGP

Época: Sep 14, 2026, 15:36 UTC

1 49210C 21083AA  26257.65018935 -.00000847  00000+0 -23226-2 0  2573
2 49210  87.8919 302.4388 0001568 104.2470 358.3043 13.13473271    15

Sigue ONEWEB-0344 en tiempo real con AllMySat

Download on the App Store